H1 CPF 2 COD 2023 3 11 2 70 1 galileo213 NONE
H2 1606903 7213 41861 2023 3 10 23 59 42 2023 3 15 23 59 42 900 1 1 0 0 0 1
H5 0.5552
H9
10 0 60015  37782.000000  0  -28583996.305   7580656.011  -1305035.890
10 0 60015  38682.000000  0  -28569855.109   7621133.796   1395915.839
10 0 60015  39582.000000  0  -28322841.098   7582356.105   4079507.159
10 0 60015  40482.000000  0  -27857346.016   7434983.111   6712366.582
10 0 60015  41382.000000  0  -27193191.943   7152808.260   9261759.855
10 0 60015  42282.000000  0  -26354998.507   6713643.368  11695996.814
10 0 60015  43182.000000  0  -25371403.017   6100078.017  13984824.877
10 0 60015  44082.000000  0  -24274158.057   5300089.419  16099804.301
10 0 60015  44982.000000  0  -23097134.860   4307483.617  18014660.558
10 0 60015  45882.000000  0  -21875263.719   3122154.185  19705609.542
10 0 60015  46782.000000  0  -20643444.612   1750150.294  21151651.627
10 0 60015  47682.000000  0  -19435462.085    203552.017  22334831.051
10 0 60015  48582.000000  0  -18282938.303  -1499843.314  23240457.505
10 0 60015  49482.000000  0  -17214356.915  -3337013.919  23857287.299
10 0 60015  50382.000000  0  -16254188.151  -5280370.271  24177661.958
10 0 60015  51282.000000  0  -15422142.411  -7298555.275  24197602.617
10 0 60015  52182.000000  0  -14732575.545  -9357363.075  23916859.109
10 0 60015  53082.000000  0  -14194064.344 -11420747.948  23338913.161
10 0 60015  53982.000000  0  -13809165.424 -13451891.963  22470935.670
10 0 60015  54882.000000  0  -13574364.984 -15414298.217  21323698.532
10 0 60015  55782.000000  0  -13480221.006 -17272875.679  19911442.075
10 0 60015  56682.000000  0  -13511693.425 -18994981.884  18251699.625
10 0 60015  57582.000000  0  -13648651.969 -20551391.024  16365081.288
10 0 60015  58482.000000  0  -13866545.815 -21917157.261  14275019.502
10 0 60015  59382.000000  0  -14137214.107 -23072346.319  12007479.403
10 0 60015  60282.000000  0  -14429812.007 -24002612.492   9590637.482
10 0 60015  61182.000000  0  -14711823.242 -24699603.012   7054532.456
10 0 60015  62082.000000  0  -14950127.421 -25161177.078   4430692.587
10 0 60015  62982.000000  0  -15112088.599 -25391432.671   1751744.084
10 0 60015  63882.000000  0  -15166630.883 -25400540.253   -948994.588
10 0 60015  64782.000000  0  -15085267.218 -25204388.540  -3637927.396
10 0 60015  65682.000000  0  -14843048.959 -24824053.430  -6281599.243
10 0 60015  66582.000000  0  -14419406.260 -24285106.748  -8847113.004
10 0 60015  67482.000000  0  -13798852.753 -23616786.489 -11302539.814
10 0 60015  68382.000000  0  -12971532.227 -22851054.647 -13617317.450
10 0 60015  69282.000000  0  -11933589.975 -22021572.221 -15762631.735
10 0 60015  70182.000000  0  -10687356.992 -21162623.642 -17711776.156
10 0 60015  71082.000000  0   -9241341.098 -20308024.412 -19440485.172
10 0 60015  71982.000000  0   -7610025.103 -19490046.317 -20927237.003
10 0 60015  72882.000000  0   -5813478.227 -18738393.964 -22153522.116
10 0 60015  73782.000000  0   -3876792.815 -18079264.823 -23104074.060
10 0 60015  74682.000000  0   -1829363.903 -17534522.266 -23767059.774
10 0 60015  75582.000000  0     295965.912 -17121007.577 -24134227.025
10 0 60015  76482.000000  0    2463869.611 -16850012.498 -24201007.153
10 0 60015  77382.000000  0    4637576.838 -16726928.863 -23966571.865
10 0 60015  78282.000000  0    6779960.432 -16751086.270 -23433843.396
10 0 60015  79182.000000  0    8854634.480 -16915782.866 -22609457.905
10 0 60015  80082.000000  0   10827029.623 -17208508.241 -21503682.588
10 0 60015  80982.000000  0   12665412.025 -17611351.414 -20130287.515
10 0 60015  81882.000000  0   14341814.227 -18101581.043 -18506373.802
10 0 60015  82782.000000  0   15832848.815 -18652379.649 -16652160.226
10 0 60015  83682.000000  0   17120379.531 -19233708.727 -14590730.963
10 0 60015  84582.000000  0   18192028.925 -19813277.567 -12347747.570
10 0 60015  85482.000000  0   19041506.753 -20357585.303  -9951128.822
10 0 60015  86382.000000  0   19668748.954 -20833003.426  -7430702.421
10 0 60016    882.000000  0   20079863.006 -21206864.718  -4817832.940
10 0 60016   1782.000000  0   20286881.518 -21448524.343  -2145030.705
10 0 60016   2682.000000  0   20307331.935 -21530359.769    554453.475
10 0 60016   3582.000000  0   20163636.029 -21428678.042   3247042.598
10 0 60016   4482.000000  0   19882358.157 -21124501.939   5899251.570
10 0 60016   5382.000000  0   19493326.035 -20604210.290   8478103.853
10 0 60016   6282.000000  0   19028651.724 -19860012.382  10951541.437
10 0 60016   7182.000000  0   18521683.661 -18890241.577  13288823.007
10 0 60016   8082.000000  0   18005922.671 -17699458.939  15460905.368
10 0 60016   8982.000000  0   17513936.011 -16298363.642  17440803.405
10 0 60016   9882.000000  0   17076303.498 -14703512.974  19203924.177
10 0 60016  10782.000000  0   16720628.739 -12936860.683  20728371.055
10 0 60016  11682.000000  0   16470646.406 -11025128.099  21995214.250
10 0 60016  12582.000000  0   16345453.462  -8999027.630  22988724.470
10 0 60016  13482.000000  0   16358888.354  -6892362.835  23696566.924
10 0 60016  14382.000000  0   16519077.542  -4741033.088  24109953.383
10 0 60016  15282.000000  0   16828163.523  -2581973.772  24223750.493
10 0 60016  16182.000000  0   17282222.829   -452064.973  24036543.078
10 0 60016  17082.000000  0   17871376.585   1612957.443  23550651.682
10 0 60016  17982.000000  0   18580090.194   3579554.538  22772104.147
10 0 60016  18882.000000  0   19387652.840   5417368.081  21710561.545
10 0 60016  19782.000000  0   20268821.914   7100104.846  20379199.334
10 0 60016  20682.000000  0   21194612.277   8606293.929  18794545.112
10 0 60016  21582.000000  0   22133205.800   9919893.535  16976274.890
10 0 60016  22482.000000  0   23050952.790  11030728.342  14946970.283
10 0 60016  23382.000000  0   23913434.057  11934743.820  12731839.509
10 0 60016  24282.000000  0   24686550.401  12634069.576  10358405.558
10 0 60016  25182.000000  0   25337605.434  13136889.751   7856165.290
10 0 60016  26082.000000  0   25836347.776  13457124.531   5256223.635
10 0 60016  26982.000000  0   26155939.923  13613932.758   2590907.384
10 0 60016  27882.000000  0   26273823.320  13631051.234   -106636.641
10 0 60016  28782.000000  0   26172452.402  13535991.462  -2802854.023
10 0 60016  29682.000000  0   25839874.448  13359119.065  -5464200.640
10 0 60016  30582.000000  0   25270136.920  13132644.835  -8057560.724
10 0 60016  31482.000000  0   24463509.361  12889559.148 -10550659.839
10 0 60016  32382.000000  0   23426512.751  12662543.312 -12912467.526
10 0 60016  33282.000000  0   22171755.283  12482892.125 -15113584.551
10 0 60016  34182.000000  0   20717579.585  12379481.586 -17126609.834
10 0 60016  35082.000000  0   19087532.366  12377814.311 -18926482.443
10 0 60016  35982.000000  0   17309673.029  12499172.701 -20490794.343
10 0 60016  36882.000000  0   15415742.855  12759906.599 -21800069.979
10 0 60016  37782.000000  0   13440220.739  13170877.863 -22838009.195
10 0 60016  38682.000000  0   11419295.003  13737079.393 -23591690.472
10 0 60016  39582.000000  0    9389783.440  14457440.655 -24051731.964
10 0 60016  40482.000000  0    7388035.348  15324825.863 -24212408.347
10 0 60016  41382.000000  0    5448849.867  16326224.968 -24071722.049
10 0 60016  42282.000000  0    3604444.414  17443131.503 -23631427.990
10 0 60016  43182.000000  0    1883505.415  18652095.522 -22897011.531
10 0 60016  44082.000000  0     310350.962  19925434.322 -21877619.934
10 0 60016  44982.000000  0   -1095768.492  21232078.724 -20585948.157
10 0 60016  45882.000000  0   -2321209.634  22538528.411 -19038080.420
10 0 60016  46782.000000  0   -3358299.200  23809886.401 -17253289.507
10 0 60016  47682.000000  0   -4205509.084  25010940.221 -15253796.281
10 0 60016  48582.000000  0   -4867438.285  26107255.909 -13064492.430
10 0 60016  49482.000000  0   -5354602.437  27066250.514 -10712629.884
10 0 60016  50382.000000  0   -5683037.670  27858209.468  -8227480.808
10 0 60016  51282.000000  0   -5873731.404  28457216.914  -5639972.441
10 0 60016  52182.000000  0   -5951898.103  28841969.799  -2982301.363
10 0 60016  53082.000000  0   -5946122.874  28996450.219   -287532.078
10 0 60016  53982.000000  0   -5887399.973  28910434.947   2410815.050
10 0 60016  54882.000000  0   -5808096.518  28579826.181   5079181.289
10 0 60016  55782.000000  0   -5740874.082  28006793.215   7684387.215
10 0 60016  56682.000000  0   -5717602.124  27199720.635  10194045.321
10 0 60016  57582.000000  0   -5768297.425  26172964.735  12576962.395
10 0 60016  58482.000000  0   -5920122.884  24946425.859  14803526.672
10 0 60016  59382.000000  0   -6196477.089  23544950.121  16846074.943
10 0 60016  60282.000000  0   -6616203.239  21997579.281  18679235.141
10 0 60016  61182.000000  0   -7192942.206  20336672.284  20280240.193
10 0 60016  62082.000000  0   -7934650.005  18596925.938  21629209.357
10 0 60016  62982.000000  0   -8843294.768  16814325.313  22709393.655
10 0 60016  63882.000000  0   -9914742.730  15025056.625  23507382.469
10 0 60016  64782.000000  0  -11138836.819  13264416.453  24013268.858
10 0 60016  65682.000000  0  -12499665.435  11565751.271  24220771.641
10 0 60016  66582.000000  0  -13976013.116   9959460.266  24127312.813
10 0 60016  67482.000000  0  -15541979.087   8472092.443  23734049.389
10 0 60016  68382.000000  0  -17167744.509   7125566.084  23045859.294
10 0 60016  69282.000000  0  -18820464.603   5936534.786  22071281.468
10 0 60016  70182.000000  0  -20465257.903   4915919.794  20822410.865
10 0 60016  71082.000000  0  -22066261.903   4068623.138  19314749.589
10 0 60016  71982.000000  0  -23587722.228   3393430.474  17567015.887
10 0 60016  72882.000000  0  -24995081.388   2883106.635  15600913.276
10 0 60016  73782.000000  0  -26256033.171   2524680.890  13440862.523
10 0 60016  74682.000000  0  -27341509.724   2299912.959  11113699.696
99